Home > Weather > Linz > Past weeks

Flag for Austria Weather for the Past 2 Weeks in Linz, Upper Austria, Austria

Now
34 °F

Light rain. Partly cloudy.


Feels Like: 28 °F
Forecast: 28 / 42 °F
Wind: 7 mph from West

Location: Linz / Hoersching-Flughafen

Current Time: Feb 10, 2016 at 7:01:01 AM

Latest Report: Feb 10, 2016 at 6:20 AM


Visibility: 5 mi

Pressure: 29.39 "Hg

Humidity: 93%

Dew point: 32 °F

Location of LinzLocation

Historic Weather in Linz — Graph

°F

Linz Temperature Yesterday

Maximum temperature yesterday: 54 °F (at 1:20 PM)
Minimum temperature yesterday: 41 °F (at 12:50 AM)
Average temperature yesterday: 48 °F

High & Low Weather Summary for the Past Weeks

 TemperatureHumidityPressure
High55 °F (Jan 28, 2:20 PM)100% (Jan 26, 5:20 AM)30.45 "Hg (Jan 26, 5:20 AM)
Low27 °F (Jan 27, 3:20 AM)47% (Feb 8, 1:50 PM)29.24 "Hg (Feb 9, 9:20 PM)
Average40 °F86%30.08 "Hg
* Reported Jan 26 5:20 AM — Feb 10 5:20 AM, Linz, Weather by CustomWeather, © 2016

Note: Actual official high and low records may vary slightly from our data, if they occured in-between our weather recording intervals... More about our weather records

Advertising

Linz Weather History for the Previous 24 Hours

 ConditionsComfort  
Time TempWeatherWind HumidityBarometerVisibility
5:20 AM
Wed, Feb 10
36 °FLight rain. Passing clouds.16 mph93%29.39 "Hg4 mi
4:50 AM36 °FLight rain. Partly cloudy.17 mph93%29.39 "Hg6 mi
4:20 AM36 °FRain. Partly cloudy.9 mph100%29.39 "Hg6 mi
3:50 AM37 °FRain. Passing clouds.10 mph93%29.39 "Hg5 mi
3:20 AM37 °FSprinkles. Passing clouds.9 mph93%29.39 "HgN/A
2:50 AM37 °FRain showers. Passing clouds.14 mph93%29.39 "Hg5 mi
2:20 AM39 °FRain showers. Passing clouds.12 mph93%29.39 "HgN/A
1:50 AM39 °FSprinkles. Passing clouds.18 mph93%29.39 "HgN/A
1:20 AM41 °FSprinkles. Passing clouds.15 mph87%29.39 "HgN/A
12:50 AM41 °FSprinkles. Passing clouds.17 mph87%29.39 "HgN/A
12:20 AM43 °FSprinkles. Partly cloudy.38 mph81%29.36 "HgN/A
11:50 PM
Tue, Feb 9
52 °FPassing clouds.15 mph58%29.30 "HgN/A
11:20 PM54 °FLight rain. Partly cloudy.20 mph51%29.24 "HgN/A
10:20 PM48 °FPartly cloudy.5 mph62%29.24 "HgN/A
9:50 PM48 °FPartly cloudy.3 mph62%29.24 "HgN/A
9:20 PM48 °FPartly cloudy.3 mph62%29.24 "HgN/A
8:50 PM50 °FPartly cloudy.3 mph54%29.27 "HgN/A
8:20 PM50 °FPartly cloudy.5 mph58%29.27 "HgN/A
7:50 PM50 °FPartly cloudy.6 mph58%29.27 "HgN/A
7:20 PM52 °FPartly cloudy.6 mph50%29.27 "HgN/A
6:50 PM52 °FPartly cloudy.7 mph50%29.30 "HgN/A
6:20 PM52 °FPartly cloudy.5 mph54%29.30 "HgN/A
5:50 PM50 °FPartly cloudy.8 mph62%29.30 "HgN/A
4:50 PM54 °FPartly sunny.8 mph54%29.33 "HgN/A
4:20 PM54 °FPartly sunny.9 mph54%29.36 "HgN/A
3:50 PM54 °FPartly sunny.10 mph58%29.39 "HgN/A
3:20 PM54 °FPartly sunny.12 mph58%29.39 "HgN/A
2:50 PM54 °FPartly sunny.13 mph58%29.42 "HgN/A
2:20 PM54 °FPartly sunny.10 mph58%29.47 "HgN/A
1:50 PM54 °FPartly sunny.14 mph58%29.50 "HgN/A
1:20 PM54 °FSunny.12 mph63%29.53 "Hg10 mi
12:50 PM52 °FSunny.14 mph62%29.56 "Hg10 mi
12:20 PM52 °FSunny.14 mph67%29.62 "Hg10 mi
11:20 AM50 °FScattered clouds.12 mph71%29.68 "HgN/A
10:50 AM50 °FBroken clouds.9 mph71%29.68 "HgN/A
10:20 AM48 °FBroken clouds.9 mph82%29.71 "HgN/A
9:50 AM46 °FPartly sunny.7 mph82%29.74 "HgN/A
8:50 AM46 °FScattered clouds.5 mph82%29.77 "HgN/A
8:20 AM45 °FScattered clouds.2 mph87%29.77 "HgN/A
7:50 AM45 °FScattered clouds.8 mph81%29.77 "HgN/A
Weather by CustomWeather, © 2016

See weather overviewHow to use our weather pages